Showing default

COSMOS 87, 1585

Orbit data source: Space-Track

COSMOS 87, 1585 is a payload satellite owned by OKB-10 (CIS) in LEO that was launched on Sat, 18 Sep 1965 UTC via a KOSMOS 65S3 launch vehicle from the Tyuratam Missile And Space Complex (TTMTR). Payload-class satellites include a variety of spacecraft equipped with specific instruments for various scientific and technological missions. These include communications satellites like Starlink; space stations such as the ISS; scientific satellites like the Hubble; Earth observation satellites from companies like Planet Labs, Umbra, and HawkEye 360; GPS; miniature CubeSats for education and research; and military/defense satellites.

Loading next visibility...
Identifier
1585, 1965-073B
Orbit
LEO
Country
Flag of CISCIS
Related business
Manufacturer
OKB-10
Mission
Defense Communications
Bus & Motor
STRELA-1 11F610, Unknown motor
Mass
50 kg wet, 50 kg dry
Launch date (UTC)
1965-09-18 (60 years ago)
Launch vehicle
KOSMOS 65S3
Launch site
Tyuratam Missile And Space Complex (TTMTR)
Object type
Payload
Rocket body
Debris
Shape & HBR
Poly, 0.4 m
Radar Cross Section
0.731 m², Medium (>0.1 m² and < 1m²)

Expand to show TLE details & history
Last TLE update: 14 hours ago

TLE from 14 hours ago
0 COSMOS 87
1 01585U 65073B   25242.59141787 -.00000090  00000-0  33432-4 0  9996
2 01585  56.0647 344.7893 0203808 357.6779  15.0361 12.47458119729491
Epoch: 2025-08-30T14:11Z
TLE epoch observation values (Epoch: 2025-08-30T14:11:38.503Z)
Latitude
11.01825°
Longitude
160.34562°
Altitude
1,321.1 km
Speed
7.268 km/s
True Right ascension
23h 29m 07s
True Declination
10° 57' 31"
Sunlit
Object was in full shadow at epoch
Visualization orbit readout
Latitude
Unknown
Longitude
Unknown
Altitude
Unknown
Speed
Unknown
Apparent Right ascension
Unknown
Apparent Declination
Unknown
Sunlit
N/A
Visualization observer readout
Local Sidereal Time
20:19:19
Azimuth
Unknown
Elevation
Unknown
Doppler factor
Unknown
Orbital elements
Apogee altitude
1,635.02 km
Perigee altitude
1,314.915 km
Semi-major axis
7,853.104 km
Eccentricity
0.02038
Inclination
56.0647°
RAAN
344.7893°
Arg. of periapsis
357.6779°
True anomaly
15.65724°
Mean anomaly
15.0361°
Eccentric anomaly
15.34512°
Mean motion
3.11875 °/min
Orbital period
115.43 mins
BSTAR
0.000033432
Loading maneuver chart data...
Computing Atmospheric mass density...
Loading historical data...
Loading historical data...
Loading historical data...
Loading historical data...
Loading historical data...
Loading historical data...
Loading historical data...

Documentation

Showing up to 5 results
|